User: anonymous   Login
Location: Arcabell
(42.4308°N, 1.4823°E)
Time: 17:32:02
(UTC+00:00)
Language:

CZ-6A DEB - Orbit

View from above orbital plane
View from above orbital plane
View from above satellite
View from above satellite

Ground track
Ground track

The orbit is defined by the following mean orbital elements,

1 60676U          26017.99368167 +.00000000 +00000-0 +11835-3 0 00004
2 60676  88.9452 288.7642 0069227 332.7758  26.9806 14.13895151    00
Epoch (UTC): 17 January 2026 23:50:54
Eccentricity: 0.0069227
inclination: 88.9452°
perigee height: 796 km
apogee height: 896 km
right ascension of ascending node: 288.7642°
argument of perigee: 332.7758°
revolutions per day: 14.13895151
mean anomaly at epoch: 26.9806°

The dashed part of the orbit path shows where the satellite is in the earth's shadow,  

DLR